Orbital Elements at Epoch 2459000.5 (2020-May-31.0) TDB
Reference: JPL 18 (heliocentric ecliptic J2000)
Element | Value | Uncertainty (1-sigma) | Units |
e | .1542885187480162 | 5.7519e-08 | |
a | 2.381196961546217 | 1.5166e-08 | au |
q | 2.013805609501974 | 1.352e-07 | au |
i | 5.922043726737286 | 6.8838e-06 | deg |
node | 201.412637041072 | 3.9275e-05 | deg |
peri | 159.9988352828395 | 4.2567e-05 | deg |
M | 216.736950766534 | 1.9967e-05 | deg |
tp | 2459534.600637306551 (2021-Nov-16.10063731) | 7.8176e-05 | TDB |
period | 1342.120180040415 3.67 | 1.2822e-05 3.51e-08 | d yr |
n | .2682323128388989 | 2.5626e-09 | deg/d |
Q | 2.748588313590459 | 1.7506e-08 | au |
|
| | Orbit Determination Parameters
Additional Information
|